Location: La Fredeussais
(48.1780°N, 1.3980°W)
Time: 14:21:26
(UTC+00:00)

Cosmos 1437 Rocket - Pass Details

Date: 09 May 2021
Orbit: 501 x 565 km, 81.2° (Epoch: 24 June)

Event Time Altitude Azimuth Distance (km) Brightness Sun altitude
Rises 20:17:04 0° 188° (S) 2,626 6.0 -7.4°
Reaches altitude 10° 20:19:10 10° 188° (S) 1,754 5.1 -7.6°
Maximum altitude 20:23:01 84° 100° (E) 539 2.7 -8.1°
Drops below altitude 10° 20:27:00 10° 13° (NNE) 1,808 5.8 -8.7°
Sets 20:29:12 0° 13° (NNE) 2,716 6.7 -8.9°
